NIMBUS 2 DEB

Satellite information

Favourite Embed

Satellite Type and Status

DEBRISIN ORBIT

Key statistics

Satellite NIMBUS 2 DEB at a glance.

Uptime

21603

Days in orbit

Revolutions

≈ 13.9

Per day

Orbit

SSO

Sun Synchronous Orbit

Inclination

100.3

Latest

Satellite identification and parameters

Extended collection of information and parameters for NIMBUS 2 DEB.

Object identification

Identified? True

Debris? True

Object name: NIMBUS 2 DEB

International designator: 1966-040K

Object number (NORAD): 26670

Object ID (CCSDS): 26670

Country: UNITED STATES OF AMERICA (US)

Current information (Y/N): Y

RCS size: SMALL

Orbital parameters

Period: 103.306 minutes

Inclination: 100.2958 deg

SMA: 7293.055 km

Apoapsis: 936.617 km

Periapsis: 893.222 km

RAAN: 338.5873 deg

Eccentricy: 0.0029751

Argument of periapsis: 256.4368 deg

Mean anomaly: 159.2423 deg

Mean motion: 13.93922222 rev/day

Mean motion (dot): 0.00004799 rev/day2

B* drag term: 0.0036583 1/REarth

Two-line elements (TLE)

Creation date: July 6, 2025, 6:05 p.m.

Reference frame: TEME

Reference center: EARTH

Epoch: July 6, 2025, 9:07 a.m. UTC

TLE line 0: 0 NIMBUS 2 DEB

TLE line 1: 1 26670U 66040K 25187.37991647 .00004799 00000-0 36583-2 0 9992

TLE line 2: 2 26670 100.2958 338.5873 0029751 256.4368 159.2423 13.93922222902331

Live tracking on map

Real-time ground track for satellite NIMBUS 2 DEB.

In-orbit conjunctions

A list of the most updated potential collisions computed for object NIMBUS 2 DEB.

Target Orbit TCA Probability of collision Miss distance Type
COSMOS 1299 LEO 2024-07-04 17:21:56 0.0002250638 302.0 (m) PAYLOAD
COSMOS 1308 LEO 2024-06-23 03:59:41 0.0003204606 406.0 (m) PAYLOAD

Associated space launch

Nimbus 2, the second in a series of second-generation meteorological research-and-development satellites, added an additional medium-resolution infrared radiometer (MRIR) compared to Nimbus 1.

NIMBUS 2 DEB was lifted into orbit during the mission ‘Thor SLV-2A Agena B | Nimbus 2’, on board a Thor SLV-2A Agena B space rocket.

The launch took place on May 15, 1966, 7:55 a.m. from Space Launch Complex 2E.

For more information about the launch, click the button.

Launch to space Thor SLV-2A Agena B | Nimbus 2
Thor SLV-2A Agena B | Nimbus 2

Agency: N/A

Status: Launch Successful

Launch date: May 15, 1966, 7:55 a.m. UTC

Rocket: Thor SLV-2A Agena B

Launch pad: Space Launch Complex 2E

Location: Vandenberg SFB, CA, USA

...

Latest news about this satellite

There are no fresh news available about this satellite. Check back as we update our databases every day.


Newsletter sign-up

Weekly statistics, charts and insights to help you stay on top of the space industry.